This is the latest recevied weather packets stored in our database for station/object KA7EII-13. If no packets are shown the sender has not sent any weather packets the latest 10 day(s).
| Time | Temp. | Humidity | Pressure | Rain* | Wind** | Luminosity | Snow |
|---|---|---|---|---|---|---|---|
| 1777942215 | 20.56° C | 32% | 1095.9 hPa | 0 mm | - | 52 W/m² | - |
| 1777941912 | 20.56° C | 33% | 1095.9 hPa | 0 mm | - | 42 W/m² | - |
| 1777941609 | 20.56° C | 33% | 1095.9 hPa | 0 mm | - | 39 W/m² | - |
| 1777941306 | 20.56° C | 32% | 1095.7 hPa | 0 mm | - | 41 W/m² | - |
| 1777941003 | 20.56° C | 33% | 1095.8 hPa | 0 mm | - | 39 W/m² | - |
| 1777940698 | 20.56° C | 32% | 1095.3 hPa | 0 mm | - | 45 W/m² | - |
| 1777940397 | 20.56° C | 32% | 1095.5 hPa | 0 mm | - | 62 W/m² | - |
| 1777940094 | 20.56° C | 33% | 1095.5 hPa | 0 mm | - | 81 W/m² | - |
| 1777939790 | 20.56° C | 33% | 1095.5 hPa | 0 mm | - | 74 W/m² | - |
| 1777939489 | 21.11° C | 32% | 1095.1 hPa | 0 mm | - | 65 W/m² | - |
| 1777939185 | 21.67° C | 31% | 1095.2 hPa | 0 mm | - | 74 W/m² | - |
| 1777938882 | 21.67° C | 29% | 1095 hPa | 0 mm | - | 88 W/m² | - |
| 1777938579 | 22.78° C | 28% | 1094.9 hPa | 0 mm | - | 96 W/m² | - |
| 1777938276 | 22.22° C | 25% | 1094.6 hPa | 0 mm | - | 104 W/m² | - |
| 1777937972 | 22.78° C | 26% | 1094.6 hPa | 0 mm | - | 95 W/m² | - |
| 1777937668 | 22.78° C | 25% | 1094.7 hPa | 0 mm | - | 104 W/m² | - |
| 1777937365 | 22.78° C | 25% | 1094.6 hPa | 0 mm | - | 112 W/m² | - |
| 1777937063 | 23.89° C | 24% | 1094.9 hPa | 0 mm | - | 111 W/m² | - |
| 1777936760 | 23.89° C | 24% | 1094.7 hPa | 0 mm | - | 174 W/m² | - |
| 1777936456 | 24.44° C | 25% | 1094.7 hPa | 0 mm | - | 420 W/m² | - |
| 1777936152 | 23.33° C | 26% | 1095 hPa | 0 mm | - | 414 W/m² | - |
| 1777935850 | 23.89° C | 24% | 1094.9 hPa | 0 mm | - | 134 W/m² | - |
| 1777935548 | 23.89° C | 23% | 1095.2 hPa | 0 mm | - | 427 W/m² | - |
| 1777935244 | 24.44° C | 23% | 1095.2 hPa | 0 mm | - | 400 W/m² | - |
| 1777934942 | 23.89° C | 27% | 1095.1 hPa | 0 mm | - | 427 W/m² | - |
* Rain latest hour (hover to see other rain measurements)
** Current wind speed in m/s (hover to see current wind gust speed)